<?xml version="1.0" encoding="UTF-8" standalone="no" ?>
<gpx xmlns="http://www.topografix.com/GPX/1/1" xmlns:xsi="http://www.w3.org/2001/XMLSchema-instance" xsi:schemaLocation="http://www.topografix.com/GPX/1/1 http://www.topografix.com/GPX/1/1/gpx.xsd" version="1.1" creator="VisuGPX - https://www.visugpx.com">
  <metadata>
    <name>St Germain , l'autre colline de villeneuve sur lot</name>
    <desc><![CDATA[Randonnée sur une partie du GR 652 venant de Rocamadour]]></desc>
  </metadata>
  <trk>
    <name><![CDATA[VilleneuveStGermainGd]]></name>
    <trkseg>
      <trkpt lat="44.37971" lon="0.75518">
        <ele>101</ele>
        <time>2007-06-11T18:07:22Z</time>
      </trkpt>
      <trkpt lat="44.37985" lon="0.75502">
        <ele>103</ele>
        <time>2007-06-11T18:07:22Z</time>
      </trkpt>
      <trkpt lat="44.38015" lon="0.75493">
        <ele>107</ele>
        <time>2007-06-11T18:07:22Z</time>
      </trkpt>
      <trkpt lat="44.38046" lon="0.75578">
        <ele>108</ele>
        <time>2007-06-11T18:07:22Z</time>
      </trkpt>
      <trkpt lat="44.38052" lon="0.75519">
        <ele>113</ele>
        <time>2007-06-11T18:07:22Z</time>
      </trkpt>
      <trkpt lat="44.38055" lon="0.75501">
        <ele>114</ele>
        <time>2007-06-11T18:07:22Z</time>
      </trkpt>
      <trkpt lat="44.38062" lon="0.7549">
        <ele>116</ele>
        <time>2007-06-11T18:07:22Z</time>
      </trkpt>
      <trkpt lat="44.38081" lon="0.75485">
        <ele>120</ele>
        <time>2007-06-11T18:07:22Z</time>
      </trkpt>
      <trkpt lat="44.38095" lon="0.75477">
        <ele>124</ele>
        <time>2007-06-11T18:07:22Z</time>
      </trkpt>
      <trkpt lat="44.38106" lon="0.75469">
        <ele>126</ele>
        <time>2007-06-11T18:07:22Z</time>
      </trkpt>
      <trkpt lat="44.38116" lon="0.75454">
        <ele>129</ele>
        <time>2007-06-11T18:07:22Z</time>
      </trkpt>
      <trkpt lat="44.38133" lon="0.75415">
        <ele>136</ele>
        <time>2007-06-11T18:07:22Z</time>
      </trkpt>
      <trkpt lat="44.3815" lon="0.75372">
        <ele>142</ele>
        <time>2007-06-11T18:07:22Z</time>
      </trkpt>
      <trkpt lat="44.38166" lon="0.75348">
        <ele>144</ele>
        <time>2007-06-11T18:07:22Z</time>
      </trkpt>
      <trkpt lat="44.38181" lon="0.75329">
        <ele>147</ele>
        <time>2007-06-11T18:07:22Z</time>
      </trkpt>
      <trkpt lat="44.38201" lon="0.75312">
        <ele>150</ele>
        <time>2007-06-11T18:07:22Z</time>
      </trkpt>
      <trkpt lat="44.38231" lon="0.75297">
        <ele>155</ele>
        <time>2007-06-11T18:07:22Z</time>
      </trkpt>
      <trkpt lat="44.3826" lon="0.75281">
        <ele>163</ele>
        <time>2007-06-11T18:07:22Z</time>
      </trkpt>
      <trkpt lat="44.38273" lon="0.7527">
        <ele>167</ele>
        <time>2007-06-11T18:07:22Z</time>
      </trkpt>
      <trkpt lat="44.38281" lon="0.75249">
        <ele>171</ele>
        <time>2007-06-11T18:07:22Z</time>
      </trkpt>
      <trkpt lat="44.3829" lon="0.75189">
        <ele>180</ele>
        <time>2007-06-11T18:07:22Z</time>
      </trkpt>
      <trkpt lat="44.38292" lon="0.75169">
        <ele>182</ele>
        <time>2007-06-11T18:07:22Z</time>
      </trkpt>
      <trkpt lat="44.38291" lon="0.75155">
        <ele>183</ele>
        <time>2007-06-11T18:07:22Z</time>
      </trkpt>
      <trkpt lat="44.38284" lon="0.75138">
        <ele>182</ele>
        <time>2007-06-11T18:07:22Z</time>
      </trkpt>
      <trkpt lat="44.38276" lon="0.75124">
        <ele>181</ele>
        <time>2007-06-11T18:07:22Z</time>
      </trkpt>
      <trkpt lat="44.38273" lon="0.75102">
        <ele>182</ele>
        <time>2007-06-11T18:07:22Z</time>
      </trkpt>
      <trkpt lat="44.38272" lon="0.75085">
        <ele>183</ele>
        <time>2007-06-11T18:07:22Z</time>
      </trkpt>
      <trkpt lat="44.38271" lon="0.75066">
        <ele>184</ele>
        <time>2007-06-11T18:07:22Z</time>
      </trkpt>
      <trkpt lat="44.38279" lon="0.7504">
        <ele>188</ele>
        <time>2007-06-11T18:07:22Z</time>
      </trkpt>
      <trkpt lat="44.38293" lon="0.75012">
        <ele>192</ele>
        <time>2007-06-11T18:07:22Z</time>
      </trkpt>
      <trkpt lat="44.3831" lon="0.74985">
        <ele>196</ele>
        <time>2007-06-11T18:07:22Z</time>
      </trkpt>
      <trkpt lat="44.38312" lon="0.7493">
        <ele>194</ele>
        <time>2007-06-11T18:07:22Z</time>
      </trkpt>
      <trkpt lat="44.38318" lon="0.74887">
        <ele>196</ele>
        <time>2007-06-11T18:07:22Z</time>
      </trkpt>
      <trkpt lat="44.38381" lon="0.74878">
        <ele>198</ele>
        <time>2007-06-11T18:07:22Z</time>
      </trkpt>
      <trkpt lat="44.38436" lon="0.74828">
        <ele>190</ele>
        <time>2007-06-11T18:07:22Z</time>
      </trkpt>
      <trkpt lat="44.38492" lon="0.74779">
        <ele>172</ele>
        <time>2007-06-11T18:07:22Z</time>
      </trkpt>
      <trkpt lat="44.38521" lon="0.74733">
        <ele>167</ele>
        <time>2007-06-11T18:07:22Z</time>
      </trkpt>
      <trkpt lat="44.38545" lon="0.74616">
        <ele>166</ele>
        <time>2007-06-11T18:07:22Z</time>
      </trkpt>
      <trkpt lat="44.38579" lon="0.74551">
        <ele>155</ele>
        <time>2007-06-11T18:07:22Z</time>
      </trkpt>
      <trkpt lat="44.38623" lon="0.74491">
        <ele>147</ele>
        <time>2007-06-11T18:07:22Z</time>
      </trkpt>
      <trkpt lat="44.38675" lon="0.74493">
        <ele>137</ele>
        <time>2007-06-11T18:07:22Z</time>
      </trkpt>
      <trkpt lat="44.38695" lon="0.74441">
        <ele>137</ele>
        <time>2007-06-11T18:07:22Z</time>
      </trkpt>
      <trkpt lat="44.38708" lon="0.74423">
        <ele>136</ele>
        <time>2007-06-11T18:07:22Z</time>
      </trkpt>
      <trkpt lat="44.38722" lon="0.74396">
        <ele>135</ele>
        <time>2007-06-11T18:07:22Z</time>
      </trkpt>
      <trkpt lat="44.38727" lon="0.74379">
        <ele>134</ele>
        <time>2007-06-11T18:07:22Z</time>
      </trkpt>
      <trkpt lat="44.38731" lon="0.7436">
        <ele>134</ele>
        <time>2007-06-11T18:07:22Z</time>
      </trkpt>
      <trkpt lat="44.38734" lon="0.74341">
        <ele>133</ele>
        <time>2007-06-11T18:07:22Z</time>
      </trkpt>
      <trkpt lat="44.38741" lon="0.74331">
        <ele>130</ele>
        <time>2007-06-11T18:07:22Z</time>
      </trkpt>
      <trkpt lat="44.38748" lon="0.74337">
        <ele>129</ele>
        <time>2007-06-11T18:07:22Z</time>
      </trkpt>
      <trkpt lat="44.38753" lon="0.74345">
        <ele>128</ele>
        <time>2007-06-11T18:07:22Z</time>
      </trkpt>
      <trkpt lat="44.38762" lon="0.74336">
        <ele>125</ele>
        <time>2007-06-11T18:07:22Z</time>
      </trkpt>
      <trkpt lat="44.38755" lon="0.74281">
        <ele>126</ele>
        <time>2007-06-11T18:07:22Z</time>
      </trkpt>
      <trkpt lat="44.3875" lon="0.74231">
        <ele>125</ele>
        <time>2007-06-11T18:07:22Z</time>
      </trkpt>
      <trkpt lat="44.38792" lon="0.74231">
        <ele>117</ele>
        <time>2007-06-11T18:07:22Z</time>
      </trkpt>
      <trkpt lat="44.38873" lon="0.74226">
        <ele>100</ele>
        <time>2007-06-11T18:07:22Z</time>
      </trkpt>
      <trkpt lat="44.38893" lon="0.7422">
        <ele>96</ele>
        <time>2007-06-11T18:07:22Z</time>
      </trkpt>
      <trkpt lat="44.38953" lon="0.74203">
        <ele>88</ele>
        <time>2007-06-11T18:07:22Z</time>
      </trkpt>
      <trkpt lat="44.39004" lon="0.7418">
        <ele>81</ele>
        <time>2007-06-11T18:07:22Z</time>
      </trkpt>
      <trkpt lat="44.39052" lon="0.74185">
        <ele>78</ele>
        <time>2007-06-11T18:07:22Z</time>
      </trkpt>
      <trkpt lat="44.39089" lon="0.74193">
        <ele>76</ele>
        <time>2007-06-11T18:07:22Z</time>
      </trkpt>
      <trkpt lat="44.39128" lon="0.74198">
        <ele>75</ele>
        <time>2007-06-11T18:07:22Z</time>
      </trkpt>
      <trkpt lat="44.39126" lon="0.74126">
        <ele>76</ele>
        <time>2007-06-11T18:07:22Z</time>
      </trkpt>
      <trkpt lat="44.39122" lon="0.74087">
        <ele>76</ele>
        <time>2007-06-11T18:07:22Z</time>
      </trkpt>
      <trkpt lat="44.39103" lon="0.73951">
        <ele>76</ele>
        <time>2007-06-11T18:07:22Z</time>
      </trkpt>
      <trkpt lat="44.3909" lon="0.73859">
        <ele>77</ele>
        <time>2007-06-11T18:07:22Z</time>
      </trkpt>
      <trkpt lat="44.39088" lon="0.73815">
        <ele>76</ele>
        <time>2007-06-11T18:07:22Z</time>
      </trkpt>
      <trkpt lat="44.39083" lon="0.73723">
        <ele>75</ele>
        <time>2007-06-11T18:07:22Z</time>
      </trkpt>
      <trkpt lat="44.38946" lon="0.73717">
        <ele>87</ele>
        <time>2007-06-11T18:07:22Z</time>
      </trkpt>
      <trkpt lat="44.38902" lon="0.73712">
        <ele>92</ele>
        <time>2007-06-11T18:07:22Z</time>
      </trkpt>
      <trkpt lat="44.38791" lon="0.737">
        <ele>112</ele>
        <time>2007-06-11T18:07:22Z</time>
      </trkpt>
      <trkpt lat="44.38774" lon="0.73703">
        <ele>115</ele>
        <time>2007-06-11T18:07:22Z</time>
      </trkpt>
      <trkpt lat="44.38729" lon="0.7372">
        <ele>122</ele>
        <time>2007-06-11T18:07:22Z</time>
      </trkpt>
      <trkpt lat="44.38697" lon="0.73726">
        <ele>126</ele>
        <time>2007-06-11T18:07:22Z</time>
      </trkpt>
      <trkpt lat="44.38677" lon="0.7373">
        <ele>129</ele>
        <time>2007-06-11T18:07:22Z</time>
      </trkpt>
      <trkpt lat="44.3867" lon="0.73739">
        <ele>131</ele>
        <time>2007-06-11T18:07:22Z</time>
      </trkpt>
      <trkpt lat="44.38661" lon="0.73755">
        <ele>133</ele>
        <time>2007-06-11T18:07:22Z</time>
      </trkpt>
      <trkpt lat="44.38648" lon="0.73776">
        <ele>137</ele>
        <time>2007-06-11T18:07:22Z</time>
      </trkpt>
      <trkpt lat="44.38641" lon="0.73839">
        <ele>144</ele>
        <time>2007-06-11T18:07:22Z</time>
      </trkpt>
      <trkpt lat="44.38632" lon="0.7385">
        <ele>146</ele>
        <time>2007-06-11T18:07:22Z</time>
      </trkpt>
      <trkpt lat="44.38592" lon="0.73859">
        <ele>153</ele>
        <time>2007-06-11T18:07:22Z</time>
      </trkpt>
      <trkpt lat="44.38574" lon="0.73856">
        <ele>156</ele>
        <time>2007-06-11T18:07:22Z</time>
      </trkpt>
      <trkpt lat="44.38557" lon="0.73849">
        <ele>158</ele>
        <time>2007-06-11T18:07:22Z</time>
      </trkpt>
      <trkpt lat="44.38543" lon="0.73832">
        <ele>159</ele>
        <time>2007-06-11T18:07:22Z</time>
      </trkpt>
      <trkpt lat="44.38529" lon="0.73804">
        <ele>159</ele>
        <time>2007-06-11T18:07:22Z</time>
      </trkpt>
      <trkpt lat="44.38521" lon="0.73778">
        <ele>159</ele>
        <time>2007-06-11T18:07:22Z</time>
      </trkpt>
      <trkpt lat="44.38517" lon="0.73754">
        <ele>160</ele>
        <time>2007-06-11T18:07:22Z</time>
      </trkpt>
      <trkpt lat="44.38518" lon="0.73671">
        <ele>161</ele>
        <time>2007-06-11T18:07:22Z</time>
      </trkpt>
      <trkpt lat="44.38516" lon="0.73631">
        <ele>162</ele>
        <time>2007-06-11T18:07:22Z</time>
      </trkpt>
      <trkpt lat="44.38512" lon="0.73585">
        <ele>162</ele>
        <time>2007-06-11T18:07:22Z</time>
      </trkpt>
      <trkpt lat="44.38503" lon="0.73553">
        <ele>163</ele>
        <time>2007-06-11T18:07:22Z</time>
      </trkpt>
      <trkpt lat="44.38518" lon="0.73566">
        <ele>160</ele>
        <time>2007-06-11T18:07:22Z</time>
      </trkpt>
      <trkpt lat="44.38521" lon="0.73546">
        <ele>159</ele>
        <time>2007-06-11T18:07:22Z</time>
      </trkpt>
      <trkpt lat="44.38538" lon="0.73547">
        <ele>156</ele>
        <time>2007-06-11T18:07:22Z</time>
      </trkpt>
      <trkpt lat="44.3855" lon="0.73545">
        <ele>153</ele>
        <time>2007-06-11T18:07:22Z</time>
      </trkpt>
      <trkpt lat="44.38555" lon="0.73484">
        <ele>152</ele>
        <time>2007-06-11T18:07:22Z</time>
      </trkpt>
      <trkpt lat="44.38551" lon="0.73446">
        <ele>152</ele>
        <time>2007-06-11T18:07:22Z</time>
      </trkpt>
      <trkpt lat="44.38547" lon="0.73404">
        <ele>152</ele>
        <time>2007-06-11T18:07:22Z</time>
      </trkpt>
      <trkpt lat="44.38549" lon="0.73296">
        <ele>149</ele>
        <time>2007-06-11T18:07:22Z</time>
      </trkpt>
      <trkpt lat="44.38548" lon="0.73266">
        <ele>149</ele>
        <time>2007-06-11T18:07:22Z</time>
      </trkpt>
      <trkpt lat="44.38553" lon="0.73238">
        <ele>148</ele>
        <time>2007-06-11T18:07:22Z</time>
      </trkpt>
      <trkpt lat="44.38565" lon="0.73204">
        <ele>146</ele>
        <time>2007-06-11T18:07:22Z</time>
      </trkpt>
      <trkpt lat="44.38574" lon="0.7317">
        <ele>144</ele>
        <time>2007-06-11T18:07:22Z</time>
      </trkpt>
      <trkpt lat="44.38579" lon="0.73126">
        <ele>144</ele>
        <time>2007-06-11T18:07:22Z</time>
      </trkpt>
      <trkpt lat="44.38588" lon="0.72954">
        <ele>144</ele>
        <time>2007-06-11T18:07:22Z</time>
      </trkpt>
      <trkpt lat="44.38598" lon="0.72891">
        <ele>145</ele>
        <time>2007-06-11T18:07:22Z</time>
      </trkpt>
      <trkpt lat="44.38612" lon="0.72816">
        <ele>142</ele>
        <time>2007-06-11T18:07:22Z</time>
      </trkpt>
      <trkpt lat="44.38633" lon="0.72727">
        <ele>134</ele>
        <time>2007-06-11T18:07:22Z</time>
      </trkpt>
      <trkpt lat="44.38661" lon="0.72623">
        <ele>130</ele>
        <time>2007-06-11T18:07:22Z</time>
      </trkpt>
      <trkpt lat="44.38685" lon="0.72541">
        <ele>131</ele>
        <time>2007-06-11T18:07:22Z</time>
      </trkpt>
      <trkpt lat="44.38693" lon="0.72498">
        <ele>134</ele>
        <time>2007-06-11T18:07:22Z</time>
      </trkpt>
      <trkpt lat="44.38704" lon="0.72453">
        <ele>135</ele>
        <time>2007-06-11T18:07:22Z</time>
      </trkpt>
      <trkpt lat="44.38704" lon="0.72391">
        <ele>136</ele>
        <time>2007-06-11T18:07:22Z</time>
      </trkpt>
      <trkpt lat="44.38713" lon="0.7238">
        <ele>135</ele>
        <time>2007-06-11T18:07:22Z</time>
      </trkpt>
      <trkpt lat="44.38719" lon="0.72367">
        <ele>134</ele>
        <time>2007-06-11T18:07:22Z</time>
      </trkpt>
      <trkpt lat="44.38723" lon="0.72348">
        <ele>134</ele>
        <time>2007-06-11T18:07:22Z</time>
      </trkpt>
      <trkpt lat="44.38726" lon="0.72328">
        <ele>134</ele>
        <time>2007-06-11T18:07:22Z</time>
      </trkpt>
      <trkpt lat="44.38723" lon="0.72283">
        <ele>137</ele>
        <time>2007-06-11T18:07:22Z</time>
      </trkpt>
      <trkpt lat="44.38717" lon="0.72239">
        <ele>138</ele>
        <time>2007-06-11T18:07:22Z</time>
      </trkpt>
      <trkpt lat="44.38692" lon="0.7213">
        <ele>138</ele>
        <time>2007-06-11T18:07:22Z</time>
      </trkpt>
      <trkpt lat="44.38671" lon="0.72115">
        <ele>140</ele>
        <time>2007-06-11T18:07:22Z</time>
      </trkpt>
      <trkpt lat="44.38645" lon="0.72095">
        <ele>144</ele>
        <time>2007-06-11T18:07:22Z</time>
      </trkpt>
      <trkpt lat="44.38628" lon="0.72083">
        <ele>146</ele>
        <time>2007-06-11T18:07:22Z</time>
      </trkpt>
      <trkpt lat="44.38614" lon="0.72068">
        <ele>146</ele>
        <time>2007-06-11T18:07:22Z</time>
      </trkpt>
      <trkpt lat="44.3858" lon="0.72033">
        <ele>150</ele>
        <time>2007-06-11T18:07:22Z</time>
      </trkpt>
      <trkpt lat="44.3856" lon="0.72013">
        <ele>153</ele>
        <time>2007-06-11T18:07:22Z</time>
      </trkpt>
      <trkpt lat="44.38534" lon="0.72007">
        <ele>158</ele>
        <time>2007-06-11T18:07:22Z</time>
      </trkpt>
      <trkpt lat="44.3851" lon="0.72007">
        <ele>162</ele>
        <time>2007-06-11T18:07:22Z</time>
      </trkpt>
      <trkpt lat="44.38489" lon="0.72013">
        <ele>165</ele>
        <time>2007-06-11T18:07:22Z</time>
      </trkpt>
      <trkpt lat="44.38467" lon="0.72027">
        <ele>170</ele>
        <time>2007-06-11T18:07:22Z</time>
      </trkpt>
      <trkpt lat="44.38444" lon="0.72043">
        <ele>172</ele>
        <time>2007-06-11T18:07:22Z</time>
      </trkpt>
      <trkpt lat="44.38415" lon="0.7207">
        <ele>174</ele>
        <time>2007-06-11T18:07:22Z</time>
      </trkpt>
      <trkpt lat="44.38381" lon="0.72111">
        <ele>176</ele>
        <time>2007-06-11T18:07:22Z</time>
      </trkpt>
      <trkpt lat="44.38365" lon="0.72128">
        <ele>174</ele>
        <time>2007-06-11T18:07:22Z</time>
      </trkpt>
      <trkpt lat="44.38335" lon="0.72157">
        <ele>172</ele>
        <time>2007-06-11T18:07:22Z</time>
      </trkpt>
      <trkpt lat="44.38315" lon="0.72178">
        <ele>170</ele>
        <time>2007-06-11T18:07:22Z</time>
      </trkpt>
      <trkpt lat="44.38305" lon="0.72192">
        <ele>168</ele>
        <time>2007-06-11T18:07:22Z</time>
      </trkpt>
      <trkpt lat="44.38301" lon="0.72176">
        <ele>165</ele>
        <time>2007-06-11T18:07:22Z</time>
      </trkpt>
      <trkpt lat="44.38299" lon="0.72159">
        <ele>162</ele>
        <time>2007-06-11T18:07:22Z</time>
      </trkpt>
      <trkpt lat="44.38305" lon="0.72154">
        <ele>163</ele>
        <time>2007-06-11T18:07:22Z</time>
      </trkpt>
      <trkpt lat="44.38301" lon="0.72133">
        <ele>158</ele>
        <time>2007-06-11T18:07:22Z</time>
      </trkpt>
      <trkpt lat="44.38302" lon="0.72118">
        <ele>156</ele>
        <time>2007-06-11T18:07:22Z</time>
      </trkpt>
      <trkpt lat="44.38315" lon="0.72092">
        <ele>154</ele>
        <time>2007-06-11T18:07:22Z</time>
      </trkpt>
      <trkpt lat="44.38346" lon="0.72028">
        <ele>147</ele>
        <time>2007-06-11T18:07:22Z</time>
      </trkpt>
      <trkpt lat="44.38415" lon="0.71901">
        <ele>131</ele>
        <time>2007-06-11T18:07:22Z</time>
      </trkpt>
      <trkpt lat="44.38413" lon="0.7186">
        <ele>126</ele>
        <time>2007-06-11T18:07:22Z</time>
      </trkpt>
      <trkpt lat="44.38417" lon="0.71805">
        <ele>121</ele>
        <time>2007-06-11T18:07:22Z</time>
      </trkpt>
      <trkpt lat="44.38417" lon="0.71783">
        <ele>119</ele>
        <time>2007-06-11T18:07:22Z</time>
      </trkpt>
      <trkpt lat="44.38417" lon="0.71765">
        <ele>118</ele>
        <time>2007-06-11T18:07:22Z</time>
      </trkpt>
      <trkpt lat="44.38406" lon="0.71745">
        <ele>115</ele>
        <time>2007-06-11T18:07:22Z</time>
      </trkpt>
      <trkpt lat="44.38394" lon="0.71728">
        <ele>112</ele>
        <time>2007-06-11T18:07:22Z</time>
      </trkpt>
      <trkpt lat="44.38374" lon="0.71711">
        <ele>109</ele>
        <time>2007-06-11T18:07:22Z</time>
      </trkpt>
      <trkpt lat="44.38324" lon="0.71667">
        <ele>99</ele>
        <time>2007-06-11T18:07:22Z</time>
      </trkpt>
      <trkpt lat="44.38241" lon="0.71751">
        <ele>96</ele>
        <time>2007-06-11T18:07:22Z</time>
      </trkpt>
      <trkpt lat="44.38228" lon="0.71773">
        <ele>97</ele>
        <time>2007-06-11T18:07:22Z</time>
      </trkpt>
      <trkpt lat="44.38215" lon="0.71799">
        <ele>98</ele>
        <time>2007-06-11T18:07:22Z</time>
      </trkpt>
      <trkpt lat="44.38181" lon="0.71862">
        <ele>102</ele>
        <time>2007-06-11T18:07:22Z</time>
      </trkpt>
      <trkpt lat="44.38169" lon="0.71885">
        <ele>104</ele>
        <time>2007-06-11T18:07:22Z</time>
      </trkpt>
      <trkpt lat="44.38154" lon="0.71902">
        <ele>104</ele>
        <time>2007-06-11T18:07:22Z</time>
      </trkpt>
      <trkpt lat="44.38135" lon="0.71928">
        <ele>106</ele>
        <time>2007-06-11T18:07:22Z</time>
      </trkpt>
      <trkpt lat="44.3812" lon="0.71955">
        <ele>107</ele>
        <time>2007-06-11T18:07:22Z</time>
      </trkpt>
      <trkpt lat="44.3811" lon="0.71976">
        <ele>109</ele>
        <time>2007-06-11T18:07:22Z</time>
      </trkpt>
      <trkpt lat="44.381" lon="0.7201">
        <ele>110</ele>
        <time>2007-06-11T18:07:22Z</time>
      </trkpt>
      <trkpt lat="44.38091" lon="0.72048">
        <ele>112</ele>
        <time>2007-06-11T18:07:22Z</time>
      </trkpt>
      <trkpt lat="44.3808" lon="0.72094">
        <ele>112</ele>
        <time>2007-06-11T18:07:22Z</time>
      </trkpt>
      <trkpt lat="44.38068" lon="0.72145">
        <ele>111</ele>
        <time>2007-06-11T18:07:22Z</time>
      </trkpt>
      <trkpt lat="44.38072" lon="0.72184">
        <ele>113</ele>
        <time>2007-06-11T18:07:22Z</time>
      </trkpt>
      <trkpt lat="44.38072" lon="0.7222">
        <ele>114</ele>
        <time>2007-06-11T18:07:22Z</time>
      </trkpt>
      <trkpt lat="44.38069" lon="0.72257">
        <ele>114</ele>
        <time>2007-06-11T18:07:22Z</time>
      </trkpt>
      <trkpt lat="44.38062" lon="0.72297">
        <ele>114</ele>
        <time>2007-06-11T18:07:22Z</time>
      </trkpt>
      <trkpt lat="44.3805" lon="0.72363">
        <ele>114</ele>
        <time>2007-06-11T18:07:22Z</time>
      </trkpt>
      <trkpt lat="44.38048" lon="0.72382">
        <ele>114</ele>
        <time>2007-06-11T18:07:22Z</time>
      </trkpt>
      <trkpt lat="44.38049" lon="0.72409">
        <ele>115</ele>
        <time>2007-06-11T18:07:22Z</time>
      </trkpt>
      <trkpt lat="44.38057" lon="0.72432">
        <ele>116</ele>
        <time>2007-06-11T18:07:22Z</time>
      </trkpt>
      <trkpt lat="44.38068" lon="0.72464">
        <ele>120</ele>
        <time>2007-06-11T18:07:22Z</time>
      </trkpt>
      <trkpt lat="44.38073" lon="0.72485">
        <ele>122</ele>
        <time>2007-06-11T18:07:22Z</time>
      </trkpt>
      <trkpt lat="44.38076" lon="0.72519">
        <ele>124</ele>
        <time>2007-06-11T18:07:22Z</time>
      </trkpt>
      <trkpt lat="44.3808" lon="0.7256">
        <ele>125</ele>
        <time>2007-06-11T18:07:22Z</time>
      </trkpt>
      <trkpt lat="44.38083" lon="0.72605">
        <ele>126</ele>
        <time>2007-06-11T18:07:22Z</time>
      </trkpt>
      <trkpt lat="44.3809" lon="0.72643">
        <ele>128</ele>
        <time>2007-06-11T18:07:22Z</time>
      </trkpt>
      <trkpt lat="44.38107" lon="0.72714">
        <ele>132</ele>
        <time>2007-06-11T18:07:22Z</time>
      </trkpt>
      <trkpt lat="44.38115" lon="0.7275">
        <ele>133</ele>
        <time>2007-06-11T18:07:22Z</time>
      </trkpt>
      <trkpt lat="44.38128" lon="0.72789">
        <ele>134</ele>
        <time>2007-06-11T18:07:22Z</time>
      </trkpt>
      <trkpt lat="44.38139" lon="0.72818">
        <ele>134</ele>
        <time>2007-06-11T18:07:22Z</time>
      </trkpt>
      <trkpt lat="44.38146" lon="0.72835">
        <ele>135</ele>
        <time>2007-06-11T18:07:22Z</time>
      </trkpt>
      <trkpt lat="44.38157" lon="0.72856">
        <ele>135</ele>
        <time>2007-06-11T18:07:22Z</time>
      </trkpt>
      <trkpt lat="44.38165" lon="0.72879">
        <ele>135</ele>
        <time>2007-06-11T18:07:22Z</time>
      </trkpt>
      <trkpt lat="44.38173" lon="0.72908">
        <ele>137</ele>
        <time>2007-06-11T18:07:22Z</time>
      </trkpt>
      <trkpt lat="44.38183" lon="0.72952">
        <ele>138</ele>
        <time>2007-06-11T18:07:22Z</time>
      </trkpt>
      <trkpt lat="44.38238" lon="0.73123">
        <ele>147</ele>
        <time>2007-06-11T18:07:22Z</time>
      </trkpt>
      <trkpt lat="44.38303" lon="0.73115">
        <ele>165</ele>
        <time>2007-06-11T18:07:22Z</time>
      </trkpt>
      <trkpt lat="44.38312" lon="0.7311">
        <ele>169</ele>
        <time>2007-06-11T18:07:22Z</time>
      </trkpt>
      <trkpt lat="44.38316" lon="0.73102">
        <ele>171</ele>
        <time>2007-06-11T18:07:22Z</time>
      </trkpt>
      <trkpt lat="44.38318" lon="0.73091">
        <ele>173</ele>
        <time>2007-06-11T18:07:22Z</time>
      </trkpt>
      <trkpt lat="44.38313" lon="0.73028">
        <ele>170</ele>
        <time>2007-06-11T18:07:22Z</time>
      </trkpt>
      <trkpt lat="44.38311" lon="0.72965">
        <ele>172</ele>
        <time>2007-06-11T18:07:22Z</time>
      </trkpt>
      <trkpt lat="44.38311" lon="0.72904">
        <ele>175</ele>
        <time>2007-06-11T18:07:22Z</time>
      </trkpt>
      <trkpt lat="44.38331" lon="0.72979">
        <ele>181</ele>
        <time>2007-06-11T18:07:22Z</time>
      </trkpt>
      <trkpt lat="44.38355" lon="0.7305">
        <ele>186</ele>
        <time>2007-06-11T18:07:22Z</time>
      </trkpt>
      <trkpt lat="44.38377" lon="0.73103">
        <ele>192</ele>
        <time>2007-06-11T18:07:22Z</time>
      </trkpt>
      <trkpt lat="44.38389" lon="0.73158">
        <ele>195</ele>
        <time>2007-06-11T18:07:22Z</time>
      </trkpt>
      <trkpt lat="44.38395" lon="0.73187">
        <ele>195</ele>
        <time>2007-06-11T18:07:22Z</time>
      </trkpt>
      <trkpt lat="44.38349" lon="0.73297">
        <ele>199</ele>
        <time>2007-06-11T18:07:22Z</time>
      </trkpt>
      <trkpt lat="44.38305" lon="0.73419">
        <ele>197</ele>
        <time>2007-06-11T18:07:22Z</time>
      </trkpt>
      <trkpt lat="44.38286" lon="0.73468">
        <ele>196</ele>
        <time>2007-06-11T18:07:22Z</time>
      </trkpt>
      <trkpt lat="44.38272" lon="0.73493">
        <ele>195</ele>
        <time>2007-06-11T18:07:22Z</time>
      </trkpt>
      <trkpt lat="44.38258" lon="0.73514">
        <ele>195</ele>
        <time>2007-06-11T18:07:22Z</time>
      </trkpt>
      <trkpt lat="44.38245" lon="0.7353">
        <ele>195</ele>
        <time>2007-06-11T18:07:22Z</time>
      </trkpt>
      <trkpt lat="44.38234" lon="0.7354">
        <ele>194</ele>
        <time>2007-06-11T18:07:22Z</time>
      </trkpt>
      <trkpt lat="44.38225" lon="0.73545">
        <ele>194</ele>
        <time>2007-06-11T18:07:22Z</time>
      </trkpt>
      <trkpt lat="44.3821" lon="0.7355">
        <ele>193</ele>
        <time>2007-06-11T18:07:22Z</time>
      </trkpt>
      <trkpt lat="44.3819" lon="0.73558">
        <ele>193</ele>
        <time>2007-06-11T18:07:22Z</time>
      </trkpt>
      <trkpt lat="44.3818" lon="0.73565">
        <ele>193</ele>
        <time>2007-06-11T18:07:22Z</time>
      </trkpt>
      <trkpt lat="44.38158" lon="0.73581">
        <ele>193</ele>
        <time>2007-06-11T18:07:22Z</time>
      </trkpt>
      <trkpt lat="44.38147" lon="0.73588">
        <ele>193</ele>
        <time>2007-06-11T18:07:22Z</time>
      </trkpt>
      <trkpt lat="44.38123" lon="0.73595">
        <ele>193</ele>
        <time>2007-06-11T18:07:22Z</time>
      </trkpt>
      <trkpt lat="44.38101" lon="0.73597">
        <ele>193</ele>
        <time>2007-06-11T18:07:22Z</time>
      </trkpt>
      <trkpt lat="44.3808" lon="0.73598">
        <ele>193</ele>
        <time>2007-06-11T18:07:22Z</time>
      </trkpt>
      <trkpt lat="44.38063" lon="0.73593">
        <ele>192</ele>
        <time>2007-06-11T18:07:22Z</time>
      </trkpt>
      <trkpt lat="44.38035" lon="0.73583">
        <ele>191</ele>
        <time>2007-06-11T18:07:22Z</time>
      </trkpt>
      <trkpt lat="44.37999" lon="0.73576">
        <ele>192</ele>
        <time>2007-06-11T18:07:22Z</time>
      </trkpt>
      <trkpt lat="44.37965" lon="0.73573">
        <ele>194</ele>
        <time>2007-06-11T18:07:22Z</time>
      </trkpt>
      <trkpt lat="44.37925" lon="0.73577">
        <ele>196</ele>
        <time>2007-06-11T18:07:22Z</time>
      </trkpt>
      <trkpt lat="44.37894" lon="0.73584">
        <ele>197</ele>
        <time>2007-06-11T18:07:22Z</time>
      </trkpt>
      <trkpt lat="44.3788" lon="0.73588">
        <ele>197</ele>
        <time>2007-06-11T18:07:22Z</time>
      </trkpt>
      <trkpt lat="44.37863" lon="0.73597">
        <ele>197</ele>
        <time>2007-06-11T18:07:22Z</time>
      </trkpt>
      <trkpt lat="44.37847" lon="0.73612">
        <ele>197</ele>
        <time>2007-06-11T18:07:22Z</time>
      </trkpt>
      <trkpt lat="44.37919" lon="0.73655">
        <ele>196</ele>
        <time>2007-06-11T18:07:22Z</time>
      </trkpt>
      <trkpt lat="44.37868" lon="0.73785">
        <ele>192</ele>
        <time>2007-06-11T18:07:22Z</time>
      </trkpt>
      <trkpt lat="44.37879" lon="0.73802">
        <ele>191</ele>
        <time>2007-06-11T18:07:22Z</time>
      </trkpt>
      <trkpt lat="44.37887" lon="0.73816">
        <ele>188</ele>
        <time>2007-06-11T18:07:22Z</time>
      </trkpt>
      <trkpt lat="44.37891" lon="0.73849">
        <ele>180</ele>
        <time>2007-06-11T18:07:22Z</time>
      </trkpt>
      <trkpt lat="44.3789" lon="0.73882">
        <ele>173</ele>
        <time>2007-06-11T18:07:22Z</time>
      </trkpt>
      <trkpt lat="44.37881" lon="0.7391">
        <ele>167</ele>
        <time>2007-06-11T18:07:22Z</time>
      </trkpt>
      <trkpt lat="44.37863" lon="0.73939">
        <ele>165</ele>
        <time>2007-06-11T18:07:22Z</time>
      </trkpt>
      <trkpt lat="44.37855" lon="0.73946">
        <ele>165</ele>
        <time>2007-06-11T18:07:22Z</time>
      </trkpt>
      <trkpt lat="44.37842" lon="0.73957">
        <ele>166</ele>
        <time>2007-06-11T18:07:22Z</time>
      </trkpt>
      <trkpt lat="44.37829" lon="0.73957">
        <ele>168</ele>
        <time>2007-06-11T18:07:22Z</time>
      </trkpt>
      <trkpt lat="44.37808" lon="0.73957">
        <ele>172</ele>
        <time>2007-06-11T18:07:22Z</time>
      </trkpt>
      <trkpt lat="44.37788" lon="0.73941">
        <ele>175</ele>
        <time>2007-06-11T18:07:22Z</time>
      </trkpt>
      <trkpt lat="44.37779" lon="0.73967">
        <ele>168</ele>
        <time>2007-06-11T18:07:22Z</time>
      </trkpt>
      <trkpt lat="44.37765" lon="0.73962">
        <ele>169</ele>
        <time>2007-06-11T18:07:22Z</time>
      </trkpt>
      <trkpt lat="44.37771" lon="0.73986">
        <ele>164</ele>
        <time>2007-06-11T18:07:22Z</time>
      </trkpt>
      <trkpt lat="44.37788" lon="0.7401">
        <ele>159</ele>
        <time>2007-06-11T18:07:22Z</time>
      </trkpt>
      <trkpt lat="44.37792" lon="0.7404">
        <ele>153</ele>
        <time>2007-06-11T18:07:22Z</time>
      </trkpt>
      <trkpt lat="44.37805" lon="0.74102">
        <ele>141</ele>
        <time>2007-06-11T18:07:22Z</time>
      </trkpt>
      <trkpt lat="44.37818" lon="0.74143">
        <ele>134</ele>
        <time>2007-06-11T18:07:22Z</time>
      </trkpt>
      <trkpt lat="44.3783" lon="0.74189">
        <ele>128</ele>
        <time>2007-06-11T18:07:22Z</time>
      </trkpt>
      <trkpt lat="44.37848" lon="0.74222">
        <ele>126</ele>
        <time>2007-06-11T18:07:22Z</time>
      </trkpt>
      <trkpt lat="44.37869" lon="0.74351">
        <ele>123</ele>
        <time>2007-06-11T18:07:22Z</time>
      </trkpt>
      <trkpt lat="44.37862" lon="0.74414">
        <ele>123</ele>
        <time>2007-06-11T18:07:22Z</time>
      </trkpt>
      <trkpt lat="44.37855" lon="0.74507">
        <ele>118</ele>
        <time>2007-06-11T18:07:22Z</time>
      </trkpt>
      <trkpt lat="44.37855" lon="0.74568">
        <ele>114</ele>
        <time>2007-06-11T18:07:22Z</time>
      </trkpt>
      <trkpt lat="44.37856" lon="0.74634">
        <ele>111</ele>
        <time>2007-06-11T18:07:22Z</time>
      </trkpt>
      <trkpt lat="44.37859" lon="0.74671">
        <ele>110</ele>
        <time>2007-06-11T18:07:22Z</time>
      </trkpt>
      <trkpt lat="44.37869" lon="0.74728">
        <ele>110</ele>
        <time>2007-06-11T18:07:22Z</time>
      </trkpt>
      <trkpt lat="44.37908" lon="0.74709">
        <ele>117</ele>
        <time>2007-06-11T18:07:22Z</time>
      </trkpt>
      <trkpt lat="44.37907" lon="0.74736">
        <ele>117</ele>
        <time>2007-06-11T18:07:22Z</time>
      </trkpt>
      <trkpt lat="44.37913" lon="0.74761">
        <ele>118</ele>
        <time>2007-06-11T18:07:22Z</time>
      </trkpt>
      <trkpt lat="44.37927" lon="0.74811">
        <ele>118</ele>
        <time>2007-06-11T18:07:22Z</time>
      </trkpt>
      <trkpt lat="44.3793" lon="0.7484">
        <ele>116</ele>
        <time>2007-06-11T18:07:22Z</time>
      </trkpt>
      <trkpt lat="44.37948" lon="0.74876">
        <ele>115</ele>
        <time>2007-06-11T18:07:22Z</time>
      </trkpt>
      <trkpt lat="44.37963" lon="0.74907">
        <ele>114</ele>
        <time>2007-06-11T18:07:22Z</time>
      </trkpt>
      <trkpt lat="44.37976" lon="0.74936">
        <ele>114</ele>
        <time>2007-06-11T18:07:22Z</time>
      </trkpt>
      <trkpt lat="44.37984" lon="0.74967">
        <ele>114</ele>
        <time>2007-06-11T18:07:22Z</time>
      </trkpt>
      <trkpt lat="44.3799" lon="0.74995">
        <ele>115</ele>
        <time>2007-06-11T18:07:22Z</time>
      </trkpt>
      <trkpt lat="44.38002" lon="0.75097">
        <ele>118</ele>
        <time>2007-06-11T18:07:22Z</time>
      </trkpt>
      <trkpt lat="44.38015" lon="0.75192">
        <ele>120</ele>
        <time>2007-06-11T18:07:22Z</time>
      </trkpt>
      <trkpt lat="44.38013" lon="0.75224">
        <ele>119</ele>
        <time>2007-06-11T18:07:22Z</time>
      </trkpt>
      <trkpt lat="44.38011" lon="0.75253">
        <ele>118</ele>
        <time>2007-06-11T18:07:22Z</time>
      </trkpt>
      <trkpt lat="44.38002" lon="0.75274">
        <ele>116</ele>
        <time>2007-06-11T18:07:22Z</time>
      </trkpt>
      <trkpt lat="44.37985" lon="0.75298">
        <ele>112</ele>
        <time>2007-06-11T18:07:22Z</time>
      </trkpt>
      <trkpt lat="44.37969" lon="0.75306">
        <ele>109</ele>
        <time>2007-06-11T18:07:22Z</time>
      </trkpt>
      <trkpt lat="44.37949" lon="0.75315">
        <ele>105</ele>
        <time>2007-06-11T18:07:22Z</time>
      </trkpt>
      <trkpt lat="44.37986" lon="0.75412">
        <ele>107</ele>
        <time>2007-06-11T18:07:22Z</time>
      </trkpt>
      <trkpt lat="44.38015" lon="0.75493">
        <ele>107</ele>
        <time>2007-06-11T18:07:22Z</time>
      </trkpt>
      <trkpt lat="44.37985" lon="0.75502">
        <ele>103</ele>
        <time>2007-06-11T18:07:22Z</time>
      </trkpt>
      <trkpt lat="44.37971" lon="0.75518">
        <ele>101</ele>
        <time>2007-06-11T18:07:22Z</time>
      </trkpt>
    </trkseg>
  </trk>
</gpx>